Location: Bear Point Church
(38.0814°N, 89.0770°W)
Time: 05:43:42
(UTC+00:00)

Daily predictions for brighter satellites

Satellite Brightness Start Highest point End
(mag) Time Altitude Azimuth Time Altitude Azimuth Time Altitude Azimuth
YAOGAN 1 4.0 01:15:26 10° S 01:19:30 40° W 01:23:35 10° NNW
BREEZE-M (TANK) 4.4 01:02:06 10° NW 01:22:27 80° SW 01:26:49 10° SE
NOSS 3-1 (A) 4.5 01:17:02 10° NW 01:24:55 76° WSW 01:33:50 10° SSE
Resurs 01 Rocket 3.6 01:23:26 10° E 01:25:48 14° ENE 01:28:12 10° NNE
SAR-Lupe-1 4.4 01:23:46 10° N 01:27:20 70° WNW 01:30:53 10° SSW
Cosmos 2208 Rocket 4.3 01:23:43 10° N 01:29:02 55° ENE 01:34:23 10° SSE
H-2A R/B 4.3 01:27:13 10° SSW 01:31:11 25° W 01:35:12 10° NW
Cosmos 841 Rocket 3.7 01:28:19 10° NNW 01:33:29 76° WSW 01:38:35 10° S
Lacrosse 5 rocket 3.6 01:31:13 10° WNW 01:34:37 23° WSW 01:38:07 10° S
DELTA 2 R/B (1) 3.7 01:32:20 10° W 01:37:55 76° N 01:43:29 10° E
SJ-6B 2.8 01:36:18 10° SSE 01:40:04 60° ENE 01:43:57 10° N
Nadezhda 2 Rocket 4.5 01:34:20 10° N 01:40:27 69° E 01:46:30 10° SSE
Cosmos 1553 Rocket 4.1 01:35:31 10° SSE 01:41:25 55° E 01:47:25 10° NNE
FALCON 9 DEB 4.3 01:39:01 10° NNW 01:41:43 28° NE 01:44:06 12° E
Cosmos 1603 4.2 01:39:27 10° NNW 01:45:03 61° WSW 01:50:33 10° S
ASTRO E2 4.0 01:47:46 10° WSW 01:51:08 26° S 01:53:31 15° SE
Cosmos 1606 2.6 01:48:55 10° S 01:52:37 71° E 01:56:24 10° NNE
X-37B 2.8 01:50:28 10° WNW 01:53:04 22° N 01:55:41 10° NE
Cosmos 1842 Rocket 4.5 01:51:07 10° SSW 01:55:28 53° W 01:59:53 10° N
Cosmos 1408 Rocket 4.1 01:51:19 10° NNW 01:55:40 61° W 02:00:02 10° S
MOS 1 4.3 01:51:23 10° SSE 01:56:57 65° ENE 02:02:35 10° N
Cosmos 921 Rocket 3.8 01:53:38 10° NNW 01:57:46 50° WSW 02:01:48 10° S
Helios 1A Rocket 4.2 01:54:12 10° S 01:58:05 40° W 02:02:00 10° NNW
SL-4 R/B 2.7 02:00:24 10° NW 02:04:43 52° NE 02:07:49 19° ESE
Ariane Rocket 2.9 02:03:03 11° SSE 02:07:50 78° ENE 02:12:54 10° N
CZ-2C R/B 4.5 02:06:18 10° NE 02:10:17 31° E 02:12:21 21° SE
Intercosmos 25 Rocket 3.8 02:04:32 10° N 02:10:28 67° E 02:13:14 19° SSE
Cosmos 2278 Rocket 3.9 02:10:58 14° E 02:10:58 14° E 02:13:23 10° ENE
Cosmos 1805 Rocket 3.7 02:09:20 10° N 02:13:36 55° E 02:16:11 22° SSE
ARIANE 5 R/B 4.5 02:13:17 14° E 02:14:22 15° ENE 02:16:50 10° NNE
USA 186 4.2 02:16:36 10° SW 02:18:22 16° W 02:20:03 10° NW
Cosmos 1844 Rocket 3.1 02:16:08 10° SSW 02:21:39 67° WNW 02:27:13 10° NNE
Cosmos 1633 Rocket 4.3 02:18:12 10° NNE 02:21:48 24° ENE 02:22:40 23° E
SL-08 ROCKET BODY 4.4 02:16:30 10° N 02:22:24 81° W 02:28:08 10° S
Resurs 1-3 3.7 02:20:23 16° S 02:23:48 77° WSW 02:28:12 10° NNW
Cosmos 1354 Rocket 4.0 02:19:56 10° S 02:25:01 56° ESE 02:30:09 10° NNE
FALCON 9 DEB 2.8 02:24:39 10° NW 02:27:39 74° SW 02:28:13 53° SSE
Cosmos 1743 Rocket 4.3 02:23:30 10° NNW 02:27:43 51° W 02:31:51 10° SSW
Cosmos 1328 Rocket 4.4 02:27:50 29° ESE 02:28:28 30° E 02:32:20 10° NNE
Landsat 7 4.0 02:28:06 29° SE 02:30:15 53° ENE 02:34:53 10° N
IGS 5A 3.5 02:30:17 34° SE 02:31:55 62° ENE 02:36:01 10° N
FALCON 9 DEB 3.0 02:30:50 10° NW 02:33:49 56° SW 02:34:10 51° SSW
SPOT 3 Rocket 3.5 02:31:36 27° SSE 02:34:25 70° ENE 02:39:33 10° N
GPS 2-04 Rocket1 3.9 02:31:03 10° SW 02:33:42 26° S 02:33:42 26° S
OBJECT-B 3.4 02:35:17 10° SW 02:37:34 18° W 02:39:53 10° NW
Intercosmos 24 4.1 02:35:54 10° SSW 02:40:02 64° W 02:43:35 10° N
Cosmos 1242 Rocket 2.4 02:39:40 33° S 02:41:11 87° W 02:44:46 10° N
Cosmos 1844 4.4 02:37:13 10° SW 02:42:49 55° WNW 02:48:25 10° NNE
Cosmos 1933 3.5 02:40:12 19° SSW 02:43:02 72° W 02:47:05 10° N
FALCON 9 DEB 2.9 02:40:04 10° NW 02:43:05 62° SW 02:43:05 62° SW
Cosmos 1386 Rocket 4.5 02:39:11 10° N 02:45:13 81° W 02:49:27 21° S
Cosmos 1666 Rocket 3.6 02:43:25 10° N 02:47:46 58° E 02:48:36 48° SE
ATLAS 5 CENTAUR R/B 2.8 02:43:30 10° NNW 02:49:07 50° NE 02:51:48 32° ESE
Cosmos 883 Rocket 4.4 02:44:36 16° S 02:49:42 83° E 02:56:03 10° N
Cosmos 1745 Rocket 4.2 02:46:58 10° NNW 02:53:06 68° W 02:57:27 20° S
Meteor 1-26 Rocket 4.1 02:51:28 21° S 02:55:26 86° E 03:01:03 10° N
Cosmos 1709 Rocket 3.9 02:49:52 10° N 02:55:59 72° E 02:58:29 37° SSE
Cosmos 1833 Rocket 4.0 02:54:49 10° N 02:59:28 26° ENE 03:00:47 23° ENE
BREEZE-M DEB (TANK) 2.8 02:52:43 10° NW 02:59:41 70° NNE 03:00:05 62° ENE
Iridium 4 Rocket 4.4 03:01:02 34° E 03:01:33 34° E 03:06:46 10° NNE
Resurs 01 Rocket 2.3 02:59:56 30° SSW 03:01:51 50° W 03:06:11 10° NNW
SJ 16-02 3.2 03:06:02 19° ENE 03:06:02 19° ENE 03:07:41 10° NE
Meteor 1-14 Rocket 4.5 02:59:33 10° N 03:05:18 54° ENE 03:06:32 46° ESE
Cosmos 1782 2.9 03:05:25 54° SSW 03:06:12 73° W 03:10:12 10° N
Cosmos 1500 4.1 03:03:53 10° N 03:06:37 36° NE 03:06:37 36° NE
Cosmos 2315 Rocket 4.0 03:03:47 23° S 03:07:56 86° W 03:14:22 10° N
Sich 1 4.0 03:05:08 10° NNW 03:09:14 42° W 03:10:56 29° SW
Cosmos 783 Rocket 4.5 03:04:34 10° NNW 03:09:47 65° ENE 03:10:38 56° ESE
NOSS 3-3 (A) 3.9 03:04:58 10° SW 03:10:33 78° NW 03:16:54 10° NNE
NOSS 3-3 (C) 3.9 03:05:04 10° SW 03:10:40 78° WNW 03:17:01 10° NNE
USA 290 3.4 03:11:35 10° NNW 03:14:08 40° WNW 03:14:08 40° WNW
Spot 2 Rocket 3.4 03:14:56 62° SE 03:15:43 76° ENE 03:20:47 10° N
Cosmos 773 Rocket 4.1 03:11:43 10° N 03:16:58 59° ENE 03:17:32 55° E
DELTA 2 R/B (1) 3.4 03:18:53 10° WNW 03:24:25 71° SSW 03:24:51 67° SSE
Cosmos 1151 Rocket 4.1 03:25:11 31° SW 03:26:42 42° W 03:30:52 10° N
SPOT 5 2.9 03:29:45 66° E 03:29:50 66° ENE 03:34:59 10° N
Meteor 2-6 Rocket 3.9 03:29:54 71° SE 03:30:16 75° E 03:35:43 10° NNE
X-37B 2.8 03:27:19 10° NW 03:29:16 26° NNW 03:29:16 26° NNW
ERS-1 Rocket 2.9 03:30:49 69° E 03:30:53 69° ENE 03:35:54 10° N
COSMOS 2406 3.6 03:26:06 10° N 03:31:34 46° ENE 03:31:59 45° ENE
Cosmos 2082 Rocket 3.6 03:28:46 10° N 03:33:19 25° ENE 03:33:51 24° ENE
Milstar 3 3.7 03:23:41 10° WSW 03:36:02 43° S 03:36:55 42° SSE
Terra 2.3 03:37:53 50° NE 03:37:53 50° NE 03:41:59 10° N
Cosmos 1777 Rocket 4.3 03:39:15 44° SW 03:40:44 63° WNW 03:45:54 10° NNE
SL-4 R/B 3.9 03:40:23 10° WNW 03:43:23 25° WSW 03:43:23 25° WSW
Cosmos 1515 Rocket 4.0 03:45:58 59° NW 03:45:58 59° NW 03:49:56 10° N
CZ-4C R/B 3.1 03:42:28 10° NNW 03:49:56 67° NE 03:52:00 51° ESE
ARIANE 5 R/B 3.5 03:50:49 44° W 03:50:49 44° W 03:54:35 10° NNW
Cosmos 1812 4.1 03:51:36 37° NW 03:51:36 37° NW 03:54:23 10° N
Meteor 1-11 Rocket 4.2 03:47:08 10° N 03:52:44 52° ENE 03:52:44 52° ENE
Cosmos 2278 Rocket 2.4 03:52:43 54° SW 03:53:52 69° WNW 03:59:31 10° NNE
Meteor 1-10 Rocket 4.5 04:12:46 59° W 04:12:57 60° WNW 04:18:30 10° N
Cosmos 1943 Rocket 4.1 04:16:22 18° ENE 04:16:22 18° ENE 04:18:06 10° NE
Cosmos 2327 Rocket 4.5 04:13:36 10° N 04:19:48 77° NE 04:19:48 77° NE
CZ-3C R/B 4.4 03:37:42 10° W 04:29:44 31° SW 04:31:05 31° SSW
Cosmos 2154 Rocket 4.0 04:26:15 10° N 04:32:13 77° NW 04:32:13 77° NW
ATLAS 5 CENTAUR R/B 3.7 04:28:30 10° NW 04:33:20 29° WSW 04:33:20 29° WSW
SJ 16-02 3.4 04:42:57 24° NW 04:42:57 24° NW 04:46:07 10° N
Cosmos 1833 Rocket 3.7 04:38:13 10° NW 04:42:29 39° WNW 04:42:29 39° WNW
NOSS 3-4 (A) 3.8 04:49:37 10° NNW 04:56:43 87° NNW 04:56:43 87° NNW
NOSS 3-4 (C) 3.8 04:49:44 10° NNW 04:56:50 87° N 04:56:50 87° N
Cosmos 2181 Rocket 4.4 05:06:37 58° NNE 05:06:37 58° NNE 05:11:28 10° N
ATLAS 2AS CENTAUR R/B 2.9 05:03:15 10° NNW 05:10:10 65° NE 05:10:10 65° NE
Terra 4.4 05:16:46 13° WNW 05:16:46 13° WNW 05:17:55 10° WNW
Cosmos 2082 Rocket 3.5 05:12:15 10° NW 05:15:41 33° WNW 05:15:41 33° WNW
Cosmos 2366 rocket 4.4 05:17:58 10° N 05:22:49 58° N 05:22:49 58° N
CZ-4C R/B 4.2 05:31:48 10° NW 05:37:11 28° W 05:37:11 28° W
Cosmos 2369 Rocket 3.3 05:50:30 41° NNE 05:50:30 41° NNE 05:54:06 10° NNE
Cosmos 1943 Rocket 3.5 05:57:50 35° NW 05:57:50 35° NW 06:02:06 10° N
Nadezhda 3 Rocket 4.5 06:01:01 56° NNE 06:01:01 56° NNE 06:05:52 10° N
Cosmos 1607 4.4 06:15:46 59° NNE 06:15:46 59° NNE 06:20:59 10° NNE
SeaSat 1 3.9 06:14:25 10° NNE 06:17:25 34° N 06:17:25 34° N
CZ-2D R/B 3.9 06:35:48 10° NE 06:39:13 24° ENE 06:39:13 24° ENE
USA 215 3.5 06:51:32 56° WNW 06:51:32 56° WNW 06:56:34 10° NW
ADEOS II 4.2 06:55:59 10° NE 06:59:18 17° E 06:59:20 17° E
Resurs 1-4 Rocket 3.2 06:58:31 10° NNE 07:02:30 38° ENE 07:02:30 38° ENE
SL-16 R/B 3.3 07:09:48 40° ESE 07:11:14 47° ENE 07:17:10 10° N
Cosmos 44 Rocket 4.1 07:19:23 10° NNW 07:24:00 53° NNE 07:24:00 53° NNE
Lacrosse 5 2.6 07:26:57 50° NE 07:26:57 50° NE 07:30:44 10° NE
Helios 1B rocket 4.1 07:22:53 10° NNE 07:25:15 32° NNE 07:25:15 32° NNE
Cosmos 1727 Rocket 3.9 07:27:35 86° ENE 07:27:35 86° ENE 07:33:54 10° N
USA 281 3.0 07:30:26 82° SW 07:30:33 82° WSW 07:37:09 10° NNW
ATLAS CENTAUR R/B 3.9 07:33:39 14° NNW 07:33:39 14° NNW 07:34:43 10° N
Cosmos 2369 Rocket 4.5 07:32:15 12° WNW 07:33:21 12° NW 07:35:38 10° NNW
BREEZE-M DEB (TANK) 3.2 07:42:46 63° ESE 07:42:46 63° ESE 07:51:56 10° NE
Meteor 2-20 Rocket 4.3 07:45:13 83° SW 07:45:26 86° W 07:51:39 10° N
Okean 1 Rocket 4.2 07:41:24 10° N 07:44:09 38° N 07:44:09 38° N
Cosmos 371 Rocket 4.3 07:47:14 39° E 07:47:14 39° E 07:51:37 10° NE
ARGOS Delta rocket 4.3 07:44:36 10° NNE 07:48:46 53° E 07:48:46 53° E
BREEZE-M R/B 3.6 07:48:47 75° NW 07:49:17 88° NNE 07:58:17 10° SE
Tianhe-1 4.4 07:52:52 10° ENE 07:52:52 10° ENE 07:52:53 10° ENE
Meteor 1-21 4.2 07:51:11 76° WNW 07:51:11 76° WNW 07:56:59 10° N
AQUA 4.0 07:48:05 10° NNE 07:52:19 68° NE 07:52:19 68° NE
Cosmos 1697 Rocket 3.9 08:00:52 29° SE 08:02:17 33° ESE 08:07:14 10° NE
Cosmos 1025 Rocket 4.3 08:02:13 32° ESE 08:02:39 33° E 08:06:32 10° NNE
NPP 3.7 08:01:52 10° N 08:07:11 61° WNW 08:07:15 61° WNW
Cosmos 1932 4.4 08:11:29 61° SSW 08:12:43 89° SE 08:19:08 10° NNE
Cosmos 1980 Rocket 4.2 08:09:43 13° SE 08:12:48 20° E 08:16:49 10° NE
GP-B 4.3 08:15:12 10° NNE 08:19:21 38° E 08:20:51 29° SE
CZ-2D R/B 2.9 08:15:23 10° N 08:20:20 37° WNW 08:20:32 37° WNW
Cosmos 1674 3.1 08:21:32 61° NNE 08:21:32 61° NNE 08:24:46 10° N
Cosmos 1459 Rocket 3.9 08:14:44 10° N 08:21:00 74° W 08:22:30 52° SSW
Cosmos 2016 Rocket 4.0 08:16:52 10° N 08:23:10 78° E 08:26:17 31° SSE
Cosmos 2227 Rocket 3.2 08:18:14 10° N 08:23:39 45° ENE 08:29:02 10° SE
Cosmos 2297 Rocket 2.5 08:21:40 10° NNW 08:27:19 64° ENE 08:32:55 10° SSE
DELTA 2 DEB (DPAF) 4.0 08:27:25 74° SSE 08:27:48 90° WSW 08:32:17 10° NNW
Cosmos 1455 Rocket 2.9 08:24:31 10° N 08:28:53 87° E 08:29:09 78° SSE
IDEFIX/ARIANE 42P 2.9 08:24:15 10° NNE 08:29:27 60° E 08:31:25 37° SSE
KORONAS-FOTON 4.0 08:30:29 65° NNW 08:30:29 65° NNW 08:33:57 10° N
Cosmos 2173 Rocket 4.0 08:24:50 10° NNW 08:30:53 59° W 08:32:19 48° SW
Cosmos 1953 2.3 08:27:02 10° N 08:31:00 76° E 08:31:09 74° ESE
ADEOS II 2.3 08:34:10 10° N 08:39:17 54° WNW 08:40:16 47° WSW
Cosmos 2251 Rocket 3.4 08:36:10 10° NNW 08:41:26 84° WSW 08:44:15 28° SSE
Resurs 1-4 Rocket 3.5 08:39:02 10° NNW 08:43:01 22° WNW 08:43:35 22° WNW
IRS-1D 3.7 08:40:15 10° N 08:45:29 58° WNW 08:46:54 44° SW
OAO 3 Rocket 4.0 08:48:24 34° S 08:48:24 34° S 08:51:55 10° SE
Cosmos 1802 Rocket 4.1 08:41:31 10° NNW 08:47:30 55° W 08:49:37 37° SSW
Meteor 2-5 Rocket 4.4 08:47:03 17° SSE 08:51:26 53° E 08:56:56 10° NNE
ADEOS Rocket 3.4 08:47:29 16° S 08:53:23 74° WSW 09:01:07 10° NNW
SL-16 R/B 3.5 08:54:53 26° W 08:54:58 26° W 09:00:06 10° NW
CZ-4C R/B 3.4 08:54:01 38° S 08:55:36 75° WSW 08:59:53 10° NNW
Cosmos 1975 Rocket 4.2 08:56:48 27° WNW 08:56:48 27° WNW 09:00:25 10° NNW
Cosmos 2123 Rocket 4.2 08:54:38 35° SW 08:56:52 51° W 09:02:53 10° N
SL-08 R/B 4.2 08:53:37 10° SSE 08:58:11 49° ENE 09:02:41 10° N
Cosmos 1908 3.2 08:54:32 10° NNW 08:58:22 57° W 08:58:41 55° WSW
Cosmos 1626 2.1 08:59:39 56° WSW 08:59:55 59° W 09:03:34 10° N
MSX 3.8 08:55:41 10° NNE 09:01:30 85° ESE 09:05:13 23° SSW
Cosmos 304 Rocket 3.8 09:02:03 39° SW 09:03:40 64° WNW 09:08:26 10° NNE
Cosmos 2219 3.1 08:58:00 10° NNW 09:03:42 73° WSW 09:09:23 10° SSE
Lacrosse 5 3.8 09:06:08 13° WNW 09:09:10 20° NNW 09:12:58 10° NNE
Iridium 2 3.5 09:08:09 40° SSW 09:09:25 76° W 09:13:13 10° N
Spot 1 4.3 09:09:22 29° SSW 09:11:25 54° W 09:16:05 10° NNW
Meteor 1-28 Rocket 4.1 09:14:00 29° W 09:14:00 29° W 09:16:54 10° NW
COSMOS 2455 3.0 09:07:59 10° NW 09:13:42 47° WSW 09:19:23 10° S
CZ-2C R/B 1.0 09:14:11 44° S 09:14:11 44° S 09:17:14 10° ESE
IRS-1C 4.1 09:10:38 10° N 09:15:56 66° WNW 09:19:07 24° SSW
BREEZE-M DEB (TANK) 4.1 09:18:46 24° SSW 09:18:46 24° SSW 09:22:32 10° SSE
SL-14 R/B 3.3 09:16:47 35° SW 09:18:07 56° W 09:21:58 10° N
Lacrosse 4 Rocket 1.5 09:16:18 30° SSW 09:18:27 81° WNW 09:22:55 10° NNE
Cosmos 1140 Rocket 3.6 09:16:14 10° NNW 09:21:28 76° ENE 09:26:41 10° SSE
ARIANE 5 R/B 2.5 09:17:00 10° N 09:22:09 72° WNW 09:25:40 20° SSW
ALOS 4.4 09:18:42 10° NE 09:22:31 25° E 09:26:19 10° SSE
Timation 1 Rocket 4.3 09:17:40 10° NNW 09:23:41 85° WSW 09:29:38 10° SSE
Tianhe-1 0.9 09:24:46 24° WNW 09:26:30 85° SSW 09:29:38 10° ESE
Cosmos 2360 4.4 09:23:21 24° SW 09:26:43 56° WNW 09:32:23 10° NNE
Cosmos 1340 2.6 09:24:25 20° S 09:26:57 84° E 09:30:42 10° N
ISS -0.4 09:26:36 10° N 09:27:16 10° NNE 09:27:57 10° NNE
Cosmos 1190 Rocket 4.2 09:22:29 10° NNW 09:27:43 74° ENE 09:32:56 10° SSE
APEX 4.0 09:23:55 10° NNW 09:28:28 78° ENE 09:34:09 10° SSE
Cosmos 614 Rocket 4.5 09:26:09 10° NW 09:30:48 37° WSW 09:34:54 13° SSW
Cosmos 1420 Rocket 4.1 09:28:14 13° S 09:32:50 76° ESE 09:38:02 10° NNE
USA 129 2.3 09:31:54 12° SSE 09:33:54 52° ENE 09:35:41 10° N
TSX-5 4.0 09:34:40 10° NW 09:38:06 45° WSW 09:42:16 10° S
CZ-2D R/B 3.9 09:41:40 10° N 09:45:56 51° WNW 09:49:34 14° SSW
Cosmos 1697 Rocket 3.6 09:42:37 17° WSW 09:46:10 32° WNW 09:51:11 10° N
Cosmos 1346 Rocket 4.1 09:42:42 10° SSE 09:46:22 40° E 09:50:02 10° NNE
Cosmos 220 Rocket 4.4 09:43:12 10° S 09:47:35 66° ESE 09:51:59 10° NNE
Cosmos 676 Rocket 4.4 09:45:04 10° NNW 09:50:19 70° ENE 09:55:35 10° SSE
CZ-2C R/B 2.5 09:46:47 10° NNE 09:51:54 86° WNW 09:57:05 10° SSW
Cosmos 1464 Rocket 4.2 09:45:54 10° N 09:52:05 77° E 09:58:16 10° S
Cosmos 405 2.9 09:49:06 10° N 09:52:37 87° W 09:56:07 10° S
Cosmos 407 Rocket 3.8 09:49:52 10° NNW 09:54:56 45° WSW 10:00:00 10° S
Cosmos 1980 Rocket 2.5 09:51:31 14° SW 09:56:20 51° WNW 10:01:53 10° NNE
Meteor 2-10 Rocket 3.8 09:54:30 10° N 10:00:18 90° E 10:05:51 10° S
Cosmos 1606 Rocket 3.5 09:58:35 10° N 10:02:59 82° W 10:07:24 10° S
Cosmos 1726 Rocket 3.7 10:00:35 10° N 10:04:58 80° E 10:09:21 10° S
Cosmos 2227 Rocket 3.3 10:03:02 10° NW 10:07:20 23° W 10:11:37 10° SSW
Cosmos 2278 4.2 10:03:02 10° SW 10:08:27 47° WNW 10:13:58 10° N
IDEFIX/ARIANE 42P 4.3 10:05:17 10° NNW 10:08:30 17° WNW 10:11:43 10° WSW
Cosmos 2297 Rocket 3.7 10:07:29 10° WNW 10:10:43 16° W 10:13:57 10° SW
Cosmos 1452 Rocket 3.6 10:06:31 10° SSW 10:11:48 89° WNW 10:17:06 10° NNE
ATLAS 2A CENTAUR R/B 3.9 10:14:40 10° SSW 10:19:09 27° SE 10:31:44 10° E
Cosmos 2082 4.3 10:14:28 10° NW 10:19:38 37° WSW 10:24:48 10° S
Cosmos 1300 4.3 10:17:35 10° NW 10:20:09 17° W 10:22:43 10° SW
Cosmos 1954 Rocket 4.1 10:15:36 10° NNW 10:20:47 59° WSW 10:25:58 10° S
PAYLOAD A 4.4 10:16:25 10° N 10:20:49 39° WNW 10:25:08 10° SW
Cosmos 1484 Rocket 3.0 10:18:10 10° NNE 10:22:09 79° ESE 10:26:02 10° S
Cosmos 389 Rocket 3.5 10:18:46 10° N 10:22:12 51° E 10:25:34 10° SSE
SL-16 R/B 2.5 10:19:07 10° SSW 10:24:45 74° ESE 10:30:25 10° NNE
Cosmos 292 Rocket 3.9 10:20:08 10° SSW 10:24:54 60° WNW 10:29:43 10° N
